Dillingham, AK

12:53 AM AKDT on August 29, 2016 (GMT -0800)
Togiak

Weather History for PATG - March, 2013

Change the Weather History Date:

Saturday, March 16, 2013

  Actual Average Record
Temperature  
Mean Temperature 16 °F -  
Max Temperature 21 °F 25 °F 39 °F (2002)
Min Temperature 10 °F 13 °F -18 °F (1999)
Degree Days  
Heating Degree Days 50    
Moisture  
Dew Point 12 °F    
Average Humidity 87    
Maximum Humidity 100    
Minimum Humidity 79    
Precipitation  
Precipitation 0.00 in - - ()
Sea Level Pressure  
Sea Level Pressure 30.00 in    
Wind  
Wind Speed 8 mph (North)    
Max Wind Speed 10 mph    
Max Gust Speed -    
Visibility 9 miles    
Events      
Averages and records for this station are not official NWS values.
T = Trace of Precipitation, MM = Missing Value Source: NWS Daily Summary

Daily Weather History Graph

Daily Weather History Graph

Search for Another Location

Airport or City:

Trip Planner

Search our weather history database for the weather conditions in past years. The results will help you decide how hot, cold, wet, or windy it might be!

Date:

Astronomy

Mar. 16, 2013 Rise Set
Actual Time 8:53 AM AKDT 8:47 PM AKDT
Civil Twilight 8:13 AM AKDT 9:28 PM AKDT
Nautical Twilight 7:25 AM AKDT 10:16 PM AKDT
Astronomical Twilight 6:34 AM AKDT 11:07 PM AKDT
Moon 10:17 AM AKDT (3/16) 2:22 AM AKDT (3/16)
Length of Visible Light 13h 14m
Length of Day
11h 54m
Waxing Crescent, 24% of the Moon is Illuminated
Mar 16
Waxing Crescent
Mar 19
First Quarter
Mar 27
Full
Apr 2
Last Quarter
Apr 10
New

Hourly Weather History & Observations

Time (AKDT) Temp. Windchill Dew Point Humidity Pressure Visibility Wind Dir Wind Speed Gust Speed Precip Events Conditions
12:16 AM 12.2 °F -0.2 °F 6.8 °F 79% 29.76 in 10.0 mi NNE 9.2 mph - N/A   Overcast
12:36 AM 12.2 °F 0.7 °F 6.8 °F 79% 29.77 in 9.0 mi NNE 8.1 mph - N/A   Overcast
12:56 AM 12.2 °F 2.9 °F 6.8 °F 79% 29.78 in 5.0 mi NNE 5.8 mph - N/A   Overcast
1:16 AM 12.2 °F 1.7 °F 8.6 °F 85% 29.79 in 2.5 mi NNE 6.9 mph - N/A   Overcast
1:36 AM 12.2 °F 1.7 °F 8.6 °F 85% 29.80 in 2.0 mi NNE 6.9 mph - N/A   Overcast
1:56 AM 12.2 °F -0.2 °F 10.4 °F 92% 29.80 in 2.5 mi NNE 9.2 mph - N/A   Overcast
2:16 AM 12.2 °F 0.7 °F 10.4 °F 92% 29.81 in 3.0 mi NNE 8.1 mph - N/A   Overcast
2:36 AM 12.2 °F 0.7 °F 10.4 °F 92% 29.81 in 4.0 mi North 8.1 mph - N/A   Overcast
2:56 AM 12.2 °F -0.2 °F 10.4 °F 92% 29.81 in 4.0 mi NNE 9.2 mph - N/A   Overcast
3:16 AM 12.2 °F -0.2 °F 10.4 °F 92% 29.82 in 3.0 mi NNE 9.2 mph - N/A   Overcast
3:36 AM 12.2 °F -0.2 °F 10.4 °F 92% 29.83 in 4.0 mi North 9.2 mph - N/A   Overcast
3:56 AM 12.2 °F -1.0 °F 10.4 °F 92% 29.83 in 7.0 mi North 10.4 mph - N/A   Overcast
4:16 AM 12.2 °F -0.2 °F 10.4 °F 92% 29.84 in 10.0 mi NNE 9.2 mph - N/A   Overcast
4:36 AM 12.2 °F 0.7 °F 8.6 °F 85% 29.85 in 10.0 mi North 8.1 mph - N/A   Overcast
4:56 AM 10.4 °F -3.3 °F 8.6 °F 92% 29.85 in 10.0 mi North 10.4 mph - N/A   Overcast
5:16 AM 10.4 °F -2.4 °F 10.4 °F 100% 29.86 in 10.0 mi NNW 9.2 mph - N/A   Overcast
5:36 AM 12.2 °F -1.0 °F 8.6 °F 85% 29.86 in 10.0 mi North 10.4 mph - N/A   Overcast
5:56 AM 10.4 °F -2.4 °F 6.8 °F 85% 29.86 in 10.0 mi North 9.2 mph - N/A   Mostly Cloudy
6:16 AM 10.4 °F -3.3 °F 8.6 °F 92% 29.87 in 10.0 mi North 10.4 mph - N/A   Mostly Cloudy
6:36 AM 10.4 °F -2.4 °F 8.6 °F 92% 29.88 in 10.0 mi North 9.2 mph - N/A   Overcast
6:56 AM 10.4 °F -3.3 °F 8.6 °F 92% 29.90 in 10.0 mi North 10.4 mph - N/A   Overcast
7:16 AM 12.2 °F -0.2 °F 10.4 °F 92% 29.90 in 10.0 mi NNE 9.2 mph - N/A   Overcast
7:36 AM 12.2 °F 0.7 °F 10.4 °F 92% 29.90 in 10.0 mi NNE 8.1 mph - N/A   Overcast
7:56 AM 10.4 °F -2.4 °F 6.8 °F 85% 29.92 in 10.0 mi North 9.2 mph - N/A   Mostly Cloudy
8:16 AM 10.4 °F -1.5 °F 8.6 °F 92% 29.93 in 10.0 mi North 8.1 mph - N/A   Mostly Cloudy
8:36 AM 10.4 °F -0.4 °F 6.8 °F 85% 29.94 in 10.0 mi North 6.9 mph - N/A   Overcast
8:56 AM 10.4 °F 0.8 °F 6.8 °F 85% 29.96 in 10.0 mi North 5.8 mph - N/A   Overcast
9:16 AM 12.2 °F 0.7 °F 10.4 °F 92% 29.96 in 10.0 mi NNE 8.1 mph - N/A   Overcast
9:36 AM 12.2 °F 1.7 °F 10.4 °F 92% 29.97 in 10.0 mi NNE 6.9 mph - N/A   Overcast
9:56 AM 12.2 °F 4.3 °F 10.4 °F 92% 29.98 in 10.0 mi NNE 4.6 mph - N/A   Overcast
10:16 AM 12.2 °F 0.7 °F 10.4 °F 92% 29.99 in 10.0 mi North 8.1 mph - N/A   Overcast
10:36 AM 12.2 °F 2.9 °F 8.6 °F 85% 29.99 in 10.0 mi North 5.8 mph - N/A   Overcast
10:56 AM 12.2 °F 0.7 °F 10.4 °F 92% 30.00 in 10.0 mi North 8.1 mph - N/A   Overcast
11:16 AM 14.0 °F 5.1 °F 10.4 °F 86% 30.01 in 10.0 mi North 5.8 mph - N/A   Overcast
11:36 AM 14.0 °F 2.9 °F 10.4 °F 86% 30.02 in 10.0 mi North 8.1 mph - N/A   Overcast
11:56 AM 15.8 °F 7.2 °F 10.4 °F 79% 30.02 in 10.0 mi NNE 5.8 mph - N/A   Overcast
12:16 PM 15.8 °F 7.2 °F 10.4 °F 79% 30.03 in 10.0 mi North 5.8 mph - N/A   Overcast
12:36 PM 15.8 °F 7.2 °F 10.4 °F 79% 30.04 in 10.0 mi North 5.8 mph - N/A   Overcast
12:56 PM 15.8 °F 7.2 °F 10.4 °F 79% 30.05 in 10.0 mi NNE 5.8 mph - N/A   Overcast
1:16 PM 15.8 °F 7.2 °F 12.2 °F 86% 30.06 in 10.0 mi North 5.8 mph - N/A   Overcast
1:36 PM 17.6 °F 9.3 °F 12.2 °F 79% 30.06 in 10.0 mi North 5.8 mph - N/A   Overcast
1:56 PM 17.6 °F 9.3 °F 12.2 °F 79% 30.07 in 10.0 mi North 5.8 mph - N/A   Overcast
2:16 PM 17.6 °F 9.3 °F 12.2 °F 79% 30.08 in 10.0 mi NNE 5.8 mph - N/A   Overcast
2:36 PM 17.6 °F 8.2 °F 14.0 °F 86% 30.08 in 10.0 mi North 6.9 mph - N/A   Overcast
2:56 PM 17.6 °F 8.2 °F 12.2 °F 79% 30.09 in 10.0 mi North 6.9 mph - N/A   Overcast
3:16 PM 17.6 °F 7.3 °F 14.0 °F 86% 30.10 in 10.0 mi North 8.1 mph - N/A   Overcast
3:36 PM 19.4 °F 11.5 °F 14.0 °F 80% 30.11 in 10.0 mi North 5.8 mph - N/A   Overcast
3:56 PM 19.4 °F 11.5 °F 14.0 °F 80% 30.11 in 10.0 mi North 5.8 mph - N/A   Overcast
4:16 PM 19.4 °F 10.4 °F 14.0 °F 80% 30.11 in 10.0 mi North 6.9 mph - N/A   Overcast
7:36 PM 21.2 °F 12.6 °F 17.6 °F 86% 30.17 in 10.0 mi North 6.9 mph - N/A   Overcast
7:56 PM 21.2 °F 12.6 °F 17.6 °F 86% 30.18 in 10.0 mi North 6.9 mph - N/A   Overcast
8:16 PM 21.2 °F 13.6 °F 17.6 °F 86% 30.18 in 10.0 mi North 5.8 mph - N/A   Overcast
8:36 PM 21.2 °F 13.6 °F 17.6 °F 86% 30.19 in 10.0 mi North 5.8 mph - N/A   Overcast
8:56 PM 21.2 °F 12.6 °F 17.6 °F 86% 30.20 in 10.0 mi North 6.9 mph - N/A   Overcast
9:16 PM 21.2 °F 11.7 °F 17.6 °F 86% 30.21 in 10.0 mi North 8.1 mph - N/A   Overcast
9:36 PM 21.2 °F 12.6 °F 17.6 °F 86% 30.21 in 10.0 mi North 6.9 mph - N/A   Overcast
9:56 PM 21.2 °F 13.6 °F 17.6 °F 86% 30.21 in 10.0 mi NNE 5.8 mph - N/A   Overcast
10:16 PM 21.2 °F 13.6 °F 17.6 °F 86% 30.21 in 10.0 mi NNE 5.8 mph - N/A   Overcast
10:36 PM 21.2 °F 12.6 °F 19.4 °F 93% 30.22 in 10.0 mi North 6.9 mph - N/A   Overcast
10:56 PM 21.2 °F 12.6 °F 19.4 °F 93% 30.22 in 8.0 mi North 6.9 mph - N/A   Overcast
11:16 PM 21.2 °F 11.7 °F 19.4 °F 93% 30.23 in 5.0 mi North 8.1 mph - N/A   Overcast
11:36 PM 21.2 °F 12.6 °F 19.4 °F 93% 30.23 in 3.0 mi North 6.9 mph - N/A   Overcast
11:56 PM 21.2 °F 12.6 °F 21.2 °F 100% 30.24 in 0.8 mi North 6.9 mph - N/A   Overcast